Find OneWeb SL0687

NORAD ID: 61595 Int'l Des: 2024-188 Owner: ONEWEBE Country: UK Constellation: oneweb operational
LEOCIRCULARPOLARONEWEB_TYPE

实时位置

正在加载3D地球...

关于 OneWeb SL0687

正在加载描述...

即将过境

Passes for default location (London). Set your location on the main map for personalized predictions.

高度历史

Loading altitude history...

两行轨道根数

1 61595U 24188B 26124.11187231 .00000032 00000-0 49869-4 0 9993
2 61595 87.9170 14.6389 0001626 97.2279 262.9037 13.17647934 80093
Epoch: May 4, 2026 • Age: 12 hours

当前状态

高度 1207.3 km
速度 7.25 km/s
星下点 -34.38°S, 112.91°E
发射日期 Oct 20, 2024
运行时间 1.5 years
类型 internet

技术详情

分类 Payload
质量 148.00 kg
干质量 140.00 kg
总质量 148.00 kg
长度 1.30 m
直径 1.00 m
跨度 5.00 m
形状 Trapezoid+2 pan
制造商 ONEWUS
平台类型 ARROW
阶段状态 In Orbit
所有者/国家 ONEWEBE/UK

Most Searched